Location: Chervonnoye
(48.6000°N, 34.4000°E)
Time: 12:02:56
(UTC+00:00)

deb Kosmos-2237 - Pass Details

Date: 20 June 2021
Orbit: 850 x 1045 km, 71.0° (Epoch: 25 July)

Event Time Altitude Azimuth Distance (km) Brightness Sun altitude
Rises 00:03:14 0° 322° (NW) 3,737 ? -11.5°
Reaches altitude 10° 00:09:06 10° 3° (N) 2,832 ? -11.0°
Maximum altitude 00:10:01 10° 11° (NNE) 2,817 ? -10.9°
Drops below altitude 10° 00:10:57 10° 20° (NNE) 2,843 ? -10.8°
Sets 00:16:55 0° 60° (ENE) 3,815 ? -10.3°
